Regional Weather Roundup
Issued by NWS

Home | Current Version | Previous Version | Text Only | Print | Product List | Glossary Off
Versions: 1 2 3 4 5 6 7 8 9 10 11 12 13 14 15 16 17 18 19 20 21 22 23 24 25 26 27 28 29 30 31 32 33 34 35 36 37 38 39 40 41 42 43 44 45 46 47 48 49 50

000
ASUS43 KLOT 290912
RWRIL

ILLINOIS REGIONAL WEATHER ROUNDUP
NATIONAL WEATHER SERVICE CHICAGO/ROMEOVILLE IL
400 AM CDT WED JUL 29 2015

NOTE: "FAIR" INDICATES FEW OR NO CLOUDS BELOW 12,000 FEET WITH NO
SIGNIFICANT WEATHER AND/OR OBSTRUCTIONS TO VISIBILITY.

* THESE STATIONS ARE NOT UNDER NWS QUALITY CONTROL. THEY ALSO MAY NOT
  REPORT WEATHER SUCH AS PRECIPITATION OR FOG.

ILZ001-002-007-009-015-016-024-291000-
NORTHWEST ILLINOIS

CITY           SKY/WX    TMP DP  RH WIND       PRES   REMARKS
MOLINE         LGT RAIN  75  71  87 W9        29.96R
STERLING*      CLOUDY    73  72  94 CALM      29.94R
SAVANNA*       CLOUDY    76  72  87 W6        29.95R
$$

ILZ003-004-008-010-011-017-018-291000-
NORTH CENTRAL ILLINOIS

CITY           SKY/WX    TMP DP  RH WIND       PRES   REMARKS
ROCKFORD       CLOUDY    74  70  87 S5        29.94F
FREEPORT*      CLOUDY    73  72  96 SW5       29.96S
ROCHELLE*      CLOUDY    71  70  98 CALM      29.94S
DE KALB*       CLOUDY    71  70  95 S6        29.95F
PERU*          CLOUDY    73  72  94 S6        29.94F
$$

ILZ005-006-012>014-019>023-291000-
NORTHEAST ILLINOIS

CITY           SKY/WX    TMP DP  RH WIND       PRES   REMARKS
CHICAGO-OHARE  CLOUDY    77  71  82 SW5       29.93R
CHICAGO-MIDWAY CLOUDY    78  71  79 SW9       29.92S HX  80
AURORA         CLOUDY    73  69  87 SW5       29.95R
LANSING*       LGT RAIN  75  72  88 SW7       29.94R
JOLIET*        CLOUDY    75  73  95 CALM      29.95R
WAUKEGAN       CLOUDY    76  72  87 SW6       29.92R
DUPAGE AIRPORT CLOUDY    74  71  91 SW8       29.94R
KANKAKEE*      TSTM      73  72  97 W8        29.96F
WHEELING       CLOUDY    78  70  76 SW6       29.94R HX  80
MORRIS*        CLOUDY    73  71  93 SW5       29.91F
ROMEOVILLE*    CLOUDY    73  72  94 SW5       29.96R
NORTHERLY ISL    N/A     77  72  84 S3          N/A
$$

LMZ740>746-291000-
SOUTHERN LAKE MICHIGAN

STATION/POSITION SKY/WX   TEMP    WIND        PRES    VSBY  WAVE
                          AIR SEA DIR/SP/G                  HT/PER
                          (F)     (DEG/KT/KT) (MB)    (MI)  (FT/S)
HARRISON CRIB              76     180/ 10/ 14   N/A
BURNHAM HARBOR             77     190/  3/  8   N/A
CALUMET HARBOR             75     240/  2/  8   N/A
BURNS HARBOR               79     200/  9/ 10 1013.5S
MICHIGAN CITY              79     140/  7/  9   N/A
MICHIGAN CITY 6N           77 75  250/ 10/ 12   N/A           1
ST. JOSEPH                 76 75  230/  8/ 10   N/A           1
$$

ILZ025>027-034>036-040-047-049-050-058-095>099-291000-
WEST-CENTRAL ILLINOIS

CITY           SKY/WX    TMP DP  RH WIND       PRES   REMARKS
QUINCY         CLOUDY    74  70  87 NW7       29.99R
GALESBURG*     CLOUDY    76  75  95 NW7       29.98R
MACOMB*        CLOUDY    75  73  95 NW6       29.99R
JACKSONVILLE*  MOCLDY    80  77  92 SW5       29.95R HX  85
PITTSFIELD*    MOCLDY    81  76  87 W5        29.98R HX  87
$$

ILZ028>032-037-038-041>044-048-051>054-059>061-291000-
CENTRAL ILLINOIS

CITY           SKY/WX    TMP DP  RH WIND       PRES   REMARKS
PONTIAC        TSTM      74  73  99 SE5       29.96F
BLOOMINGTON    CLOUDY    73  73 100 E8        29.97F
DECATUR        MOCLDY    73  71  93 MISG      29.97R
PEORIA         CLOUDY    75  72  90 N3        29.95R FOG
LACON*         CLOUDY    72  70  95 CALM      29.93F
LINCOLN*       MOCLDY    76  72  86 E3        29.95F
SPRINGFIELD    MOCLDY    78  74  87 SW5       29.95R HX  81
TAYLORVILLE    PTCLDY    73  73 100 S5        29.95S
$$

ILZ033-039-045-046-055>057-062-063-291000-
EAST-CENTRAL ILLINOIS

CITY           SKY/WX    TMP DP  RH WIND       PRES   REMARKS
CHAMPAIGN      TSTM      74  72  93 NW18G26   30.02R FOG
DANVILLE*      MOCLDY    73  73  99 CALM      29.94S FOG
RANTOUL*       TSTM      74  73  95 NW10      29.99F
MATTOON        MOCLDY    76  72  87 SW3       29.96R
PARIS*         MOCLDY    73  72  96 CALM      29.98R
$$

ILZ079-100>102-291000-
SOUTHWEST ILLINOIS

CITY           SKY/WX    TMP DP  RH WIND       PRES   REMARKS
ALTON          CLEAR     74  73  97 CALM      29.96S
BELLEVILLE     CLEAR     76  76 100 SE2       29.96R
CAHOKIA*       CLEAR     79  76  90 SW3       29.96R HX  83
SPARTA*        CLEAR     78  77  95 CALM      29.98R HX  81
$$

ILZ064>066-069>071-074>076-080>082-084>086-088>090-092>094-291000-
SOUTH-CENTRAL ILLINOIS

CITY           SKY/WX    TMP DP  RH WIND       PRES   REMARKS
CARBONDALE     CLEAR     76  73  91 SW6       29.96R
CAIRO*         CLEAR     76  73  88 CALM      29.96R
EFFINGHAM*     PTCLDY    75  72  91 CALM      29.98R FOG
MARION         CLEAR     77  73  88 S5        29.98R
MT. VERNON     MOCLDY    75  70  83 CALM      29.98R
CENTRALIA*     PTCLDY    76  73  91 CALM      29.98R FOG
SALEM*         PTCLDY    78  75  90 CALM      29.97R HX  82
METROPOLIS*    CLEAR     75  74  96 CALM      29.97S
$$

ILZ067-068-072-073-078-083-087-091-291000-
SOUTHEAST ILLINOIS

CITY           SKY/WX    TMP DP  RH WIND       PRES   REMARKS
LAWRENCEVILLE  MOCLDY    75  73  93 CALM      29.96R
FLORA*         MOCLDY    75  73  96 CALM      29.97R
FAIRFIELD*     PTCLDY    74  74  98 CALM      29.95R
HARRISBURG*    CLEAR     74  74 100 CALM      29.97R
ROBINSON*      MOCLDY    74  73  97 CALM      29.97R FOG
CARMI*         CLEAR     73  68  86 MISG      29.96R HAZE
$$

ABBREVIATIONS USED IN REMARKS
   TC - TEMPERATURE IN CELSIUS
  WCI - WIND CHILL INDEX
   HX - HEAT INDEX
  VSB - VISIBILITY
$$



USA.gov is the U.S. government's official web portal to all federal, state and local government web resources and services.